{"data":{"norad_id":52548,"epoch":"2026-09-19T19:08:11.712192Z","epoch_age_seconds":123989,"freshness":"FRESH","line1":"1 52548U 22051R   26262.79735778  .00002554  00000+0  88992-4 0  9990","line2":"2 52548  53.1601 325.0534 0001165  83.0432 277.0702 15.33538422240925","mean_motion":15.33538422,"eccentricity":0.0001165,"inclination_deg":53.1601,"raan_deg":325.0534,"arg_perigee_deg":83.0432,"mean_anomaly_deg":277.0702,"bstar":8.8992e-5,"rev_number":24092,"period_min":93.900483961921,"perigee_km":464.46797408518,"apogee_km":466.06248680488,"semimajor_km":6843.402230445,"source":"CELESTRAK","updated_at":"2026-09-20T09:00:40.060760Z"}}